Tracking 19638 objects as of 21-Apr-2019
HD Live streaming from Space Station
objects crossing your sky now

COSMOS 860 COOLANT

Track COSMOS 860 COOLANT now!
10-day predictions


NORAD ID: 29195
Int'l Code: 1976-103H
Perigee: 908.7 km
Apogee: 990.7 km
Inclination: 64.7 °
Period: 103.9 minutes
Semi major axis: 7320 km
RCS: 0.0092 m2 (small)
Launch date: October 17, 1976
Source: Commonwealth of Independent States (former USSR) (CIS)
Launch site: TYURATAM MISSILE AND SPACE COMPLEX (TTMTR)

Note: This is SATELLITE DEBRIS
aabbcc
Your satellite tracking list
Your tracking list is empty




NASA's NSSDC Master Catalog

Two Line Element Set (TLE):
1 29195U 76103H   19100.34919532 -.00000033  00000-0  50254-4 0  9997
2 29195  64.6989  65.2577 0055981 189.8584 170.1381 13.86031664811989
Source of the keplerian elements: AFSPC